Regional Weather Roundup
Issued by NWS Northern Indiana

Home | Current Version | Previous Version | Graphics & Text | Print | Product List | Glossary On
Versions: 1 2 3 4 5 6 7 8 9 10 11 12 13 14 15 16 17 18 19 20 21 22 23 24 25 26 27 28 29 30 31 32 33 34 35 36 37 38 39 40 41 42 43 44 45 46 47 48 49 50
000
ASUS43 KIWX 190510
RWRIWX

KIWX WEATHER ROUNDUP
NATIONAL WEATHER SERVICE NORTHERN INDIANA
1200 AM EST FRI DEC 19 2014

NOTE: "FAIR" INDICATES FEW OR NO CLOUDS BELOW 12,000 FEET WITH NO
SIGNIFICANT WEATHER AND/OR OBSTRUCTIONS TO VISIBILITY.

* THESE STATIONS ARE NOT UNDER NWS QUALITY CONTROL. THEY ALSO MAY NOT
  REPORT WEATHER SUCH AS PRECIPITATION OR FOG.

INZ001>027-190600-
NORTHERN INDIANA

CITY           SKY/WX    TMP DP  RH WIND       PRES   REMARKS
GARY*          CLOUDY    29  18  62 CALM      30.27S
VALPARAISO     CLOUDY    25  19  78 SW6       30.25S WCI  18
MICHIGAN CITY* CLOUDY    28  18  64 SW7       30.24F WCI  21
LAPORTE*       CLOUDY    28  22  77 W6        30.25S WCI  22
KNOX*          CLOUDY    26  18  70 W6        30.25S WCI  19
SOUTH BEND     CLOUDY    28  20  71 SW10      30.23S WCI  19
GOSHEN         CLOUDY    27  21  78 W7        30.22S WCI  19
MONTICELLO*    CLOUDY    25  20  81 CALM      30.26S
LOGANSPORT*    CLOUDY    27  19  74 W3        30.26F
ROCHESTER*     CLOUDY    30  25  80 W6        30.25S WCI  24
WARSAW*        CLOUDY    28  23  80 W5        30.23S WCI  23
FORT WAYNE     CLOUDY    27  22  81 W8        30.24R WCI  19
HUNTINGTON*    CLOUDY    26  22  86 W5        30.23S WCI  20
PERU/GRISSOM   CLOUDY    26  24  93 NW6       30.24S WCI  19
MARION*        CLOUDY    26  22  85 NW6       30.26R WCI  19

$$
INZ028>050-190600-
CENTRAL INDIANA

CITY           SKY/WX    TMP DP  RH WIND       PRES   REMARKS
LAFAYETTE      PTCLDY    21  19  92 CALM      30.27S
KOKOMO*        CLOUDY    27  19  74 NW6       30.25S WCI  20
MUNCIE*        CLOUDY    26  20  77 NW7       30.24R WCI  18
INDIANAPOLIS   PTCLDY    22  19  89 NW6       30.25S WCI  14

$$
MIZ043>046-050>051-056>058-064>065-071>073-077>080-190600-
SOUTHWEST LOWER MICHIGAN

CITY           SKY/WX    TMP DP  RH WIND       PRES   REMARKS
BATTLE CREEK   CLOUDY    29  25  85 W7        30.19S FOG     WCI  22
BENTON HARBOR  CLOUDY    31  28  89 VRB3      30.22S
COLDWATER*     CLOUDY    27  26  96 W7        30.20S FOG     WCI  19
HILLSDALE*     CLOUDY    28  27  98 W9        30.18S FOG     WCI  19
HOLLAND        CLOUDY    31  24  75 N3        30.22S
GRAND RAPIDS   CLOUDY    29  24  82 N7        30.20S WCI  22
KALAMAZOO      CLOUDY    28  25  88 SW6       30.20S FOG     WCI  22
STURGIS*       CLOUDY    27  23  86 W7        30.20S WCI  19
THREE RIVERS*  CLOUDY    28  23  83 W5        30.22S WCI  23

$$
OHZ001>008-015>018-024>025-190600-
NORTHWEST OHIO

CITY           SKY/WX    TMP DP  RH WIND       PRES   REMARKS
WAUSEON*       CLOUDY    28  27  93 W9        30.21R WCI  20
DEFIANCE       CLOUDY    29  24  82 W5        30.23R WCI  24
FINDLAY        CLOUDY    29  24  82 W8        30.20S WCI  21
TOLEDO EXPRESS CLOUDY    29  24  82 W6        30.20S WCI  23
TOLEDO METCALF CLOUDY    31  25  78 W9        30.21S WCI  23
LIMA           CLOUDY    30  23  75 W6        30.21S HAZE    WCI  24

$$
AND FOR LAKE MICHIGAN COASTAL AND OPEN LAKE BUOY OBSERVATIONS

STATION/POSITION TEMP    WIND        PRES    VSBY  WAVE
                 AIR SEA DIR/SP/G                  HT/PER
                 (F)     (DEG/KT/KT) (MB)    (MI)  (FT/S)
CALUMET HARBOR    28     230/  3/  5 1023.2S
SAINT JOSEPH      34     320/ 10/ 12 1023.7R

$$
&&


USA.gov is the U.S. government's official web portal to all federal, state and local government web resources and services.